�v������,���O�C��(��),���O���x(��),�Ɠx(lx),��O�J�Z���T�[(1:�~�J),����(m/s)
2023-10-01 00:00:00,24.9,86.7,2,0.0,1
2023-10-01 00:10:00,24.7,86.9,2,0.0,2
2023-10-01 00:20:00,24.5,87,2,0.0,1
2023-10-01 00:30:00,24.8,86.8,2,0.0,1
2023-10-01 00:40:00,24.9,85.8,2,0.0,1
2023-10-01 00:50:00,24.9,85.8,2,0.0,1
2023-10-01 01:00:00,24.9,85.7,2,0.0,1
2023-10-01 01:10:00,24.8,85.7,2,0.0,1
2023-10-01 01:20:00,24.8,84.7,2,0.0,1
2023-10-01 01:30:00,24.8,85.1,2,0.0,1
2023-10-01 01:40:00,24.9,85.8,2,0.0,2
2023-10-01 01:50:00,24.6,86.8,2,0.0,2
2023-10-01 02:00:00,24.3,88.4,2,0.0,1
2023-10-01 02:10:00,24.1,88.2,2,0.0,2
2023-10-01 02:20:00,24.5,88.2,2,0.0,1
2023-10-01 02:30:00,24.3,88.5,2,0.0,1
2023-10-01 02:40:00,24.4,88.8,2,0.0,1
2023-10-01 02:50:00,24.2,88.9,2,0.0,1
2023-10-01 03:00:00,24.3,89.2,2,0.0,2
2023-10-01 03:10:00,24.1,89.3,2,0.0,1
2023-10-01 03:20:00,24.2,88.8,2,0.0,1
2023-10-01 03:30:00,23.8,88.9,2,0.0,1
2023-10-01 03:40:00,24.1,90.2,2,0.0,1
2023-10-01 03:50:00,23.9,90.9,2,1.0,1
2023-10-01 04:00:00,23.7,91.6,2,1.0,0
2023-10-01 04:10:00,23.6,90.6,2,1.0,2
2023-10-01 04:20:00,23.8,89.2,2,1.0,1.5
2023-10-01 04:30:00,23.7,89.4,2,1.0,2
2023-10-01 04:40:00,23.8,88.8,2,1.0,1
2023-10-01 04:50:00,23.5,90.1,2,1.0,1
2023-10-01 05:00:00,23.4,88.7,2,1.0,3.5
2023-10-01 05:10:00,23.6,88.3,2,1.0,0
2023-10-01 05:20:00,23.5,88.8,2,1.0,2
2023-10-01 05:30:00,23.3,87.9,2,1.0,3
2023-10-01 05:40:00,23.5,88,2,1.0,4
2023-10-01 05:50:00,23.2,87.6,4,1.0,3
2023-10-01 06:00:00,23.3,87.5,32,1.0,3
2023-10-01 06:10:00,23.3,85.6,128,1.0,4
2023-10-01 06:20:00,22.9,86,292,1.0,3
2023-10-01 06:30:00,23.1,83.8,499.84,1.0,6
2023-10-01 06:40:00,22.8,82.8,999.68,0.0,3.5
2023-10-01 06:50:00,23.1,81,999.68,0.0,3
2023-10-01 07:00:00,23.1,78.7,999.68,1.0,5
2023-10-01 07:10:00,23.5,77.8,999.68,1.0,2.5
2023-10-01 07:20:00,23.4,76.8,999.68,0.0,4.5
2023-10-01 07:30:00,23.7,76.1,2997.76,0.0,2.5
2023-10-01 07:40:00,23.6,74.9,2997.76,0.0,3
2023-10-01 07:50:00,23.6,74.8,3998.72,1.0,4
2023-10-01 08:00:00,23.7,74.5,5995.52,0.0,3
2023-10-01 08:10:00,23.8,74.3,7997.44,0.0,1
2023-10-01 08:20:00,24.2,73.1,16998.4,0.0,3
2023-10-01 08:30:00,24,73.1,9999.36,0.0,4
2023-10-01 08:40:00,24.3,73,10997.8,0.0,2.5
2023-10-01 08:50:00,24.3,71.9,11991,0.0,2.5
2023-10-01 09:00:00,24.4,72.6,15994.9,0.0,2.5
2023-10-01 09:10:00,24.5,71.5,23982.1,0.0,2
2023-10-01 09:20:00,24.5,70.5,18995.2,0.0,4.5
2023-10-01 09:30:00,24.4,70.3,20992,0.0,4
2023-10-01 09:40:00,24.4,68.8,24985.6,0.0,3
2023-10-01 09:50:00,25.3,66.1,52961.3,0.0,2
2023-10-01 10:00:00,25.1,65.2,36495.4,0.0,3
2023-10-01 10:10:00,25.2,66.6,33996.8,0.0,3.5
2023-10-01 10:20:00,25.3,66.1,26992.6,0.0,3
2023-10-01 10:30:00,25,66.7,20992,0.0,3
2023-10-01 10:40:00,25.2,67.3,23982.1,0.0,1
2023-10-01 10:50:00,25.4,67.3,21995.5,0.0,3
2023-10-01 11:00:00,26.1,62.2,33996.8,0.0,4
2023-10-01 11:10:00,26,63.1,51978.2,0.0,2
2023-10-01 11:20:00,25.9,61.8,26992.6,0.0,4.5
2023-10-01 11:30:00,26.7,60.5,39997.4,0.0,2
2023-10-01 11:40:00,27.4,57.2,45998.1,0.0,1
2023-10-01 11:50:00,27.1,58.6,27996.2,0.0,2
2023-10-01 12:00:00,26.4,59,28999.7,0.0,2
2023-10-01 12:10:00,26.8,54.6,31989.8,0.0,1
2023-10-01 12:20:00,26.6,49.6,31989.8,0.0,3
2023-10-01 12:30:00,26.1,53.1,31498.2,0.0,5.5
2023-10-01 12:40:00,26.6,48.1,26992.6,0.0,5
2023-10-01 12:50:00,27.2,42.7,30986.2,0.0,2
2023-10-01 13:00:00,27.7,40.2,28999.7,0.0,2
2023-10-01 13:10:00,27.6,41.1,14991.4,0.0,3
2023-10-01 13:20:00,27.5,43.7,26480.6,0.0,2
2023-10-01 13:30:00,27.2,42.3,17991.7,0.0,3.5
2023-10-01 13:40:00,26.9,42,16496.6,0.0,3.5
2023-10-01 13:50:00,26.6,41.5,14991.4,0.0,2
2023-10-01 14:00:00,27.4,41.3,31989.8,0.0,6.5
2023-10-01 14:10:00,27.7,44.5,32481.3,0.0,4
2023-10-01 14:20:00,27.3,44.4,21995.5,0.0,2.5
2023-10-01 14:30:00,27.2,48,19998.7,0.0,2
2023-10-01 14:40:00,26.7,49.5,20992,0.0,2
2023-10-01 14:50:00,26.6,50.9,19998.7,0.0,2
2023-10-01 15:00:00,26.5,52.8,18995.2,0.0,1
2023-10-01 15:10:00,26.5,50.7,15994.9,0.0,2
2023-10-01 15:20:00,26.3,48.9,12994.6,0.0,2
2023-10-01 15:30:00,26.2,46.6,14991.4,0.0,2
2023-10-01 15:40:00,26.3,46,13998.1,0.0,2.5
2023-10-01 15:50:00,26.1,47.2,14991.4,0.0,2.5
2023-10-01 16:00:00,26.1,51.7,14991.4,0.0,2
2023-10-01 16:10:00,26,55.4,26992.6,0.0,2
2023-10-01 16:20:00,26.2,58.2,14991.4,0.0,2
2023-10-01 16:30:00,26.1,60,14991.4,0.0,2
2023-10-01 16:40:00,25.9,60.1,17991.7,0.0,2
2023-10-01 16:50:00,25.8,58.2,20992,0.0,2
2023-10-01 17:00:00,25.8,59.8,16998.4,0.0,1
2023-10-01 17:10:00,25.6,61.2,13998.1,0.0,4
2023-10-01 17:20:00,25.5,61.7,5995.52,0.0,2
2023-10-01 17:30:00,25.1,62.7,5995.52,0.0,4
2023-10-01 17:40:00,24.9,64,1999.36,0.0,2
2023-10-01 17:50:00,24.7,63.2,1999.36,0.0,1.5
2023-10-01 18:00:00,24.6,64.1,999.68,0.0,2
2023-10-01 18:10:00,24.5,64.2,440,0.0,2.5
2023-10-01 18:20:00,24.1,64.8,32,0.0,2
2023-10-01 18:30:00,24,65.4,4,0.0,1
2023-10-01 18:40:00,24,65.3,2,0.0,2
2023-10-01 18:50:00,23.9,65.8,2,0.0,2
2023-10-01 19:00:00,23.9,66.3,2,0.0,1
2023-10-01 19:10:00,23.7,66.2,2,0.0,1
2023-10-01 19:20:00,23.6,65.1,2,0.0,1
2023-10-01 19:30:00,23.5,65.4,2,0.0,2
2023-10-01 19:40:00,23.4,65.8,2,0.0,2
2023-10-01 19:50:00,23.1,65.3,2,0.0,1
2023-10-01 20:00:00,23.3,65,2,0.0,2.5
2023-10-01 20:10:00,22.9,65,2,0.0,1.5
2023-10-01 20:20:00,23.1,64.9,2,0.0,2
2023-10-01 20:30:00,22.9,65.1,2,0.0,1
2023-10-01 20:40:00,22.6,65.7,2,0.0,1
2023-10-01 20:50:00,22.7,65.1,2,0.0,2
2023-10-01 21:00:00,22.6,65.5,2,0.0,1
2023-10-01 21:10:00,22.5,66.9,2,0.0,4
2023-10-01 21:20:00,22.2,65.6,2,0.0,1.5
2023-10-01 21:30:00,22.2,65.8,2,0.0,4
2023-10-01 21:40:00,22.3,65.3,2,0.0,2.5
2023-10-01 21:50:00,22.4,65.1,2,0.0,2
2023-10-01 22:00:00,22.1,65.3,2,0.0,3
2023-10-01 22:10:00,22.2,63.9,2,0.0,2
2023-10-01 22:20:00,22,66.2,2,0.0,2
2023-10-01 22:30:00,21.8,67.3,2,0.0,2
2023-10-01 22:40:00,22,66.4,2,0.0,1
2023-10-01 22:50:00,22,65.6,2,0.0,2
2023-10-01 23:00:00,22.2,62.9,2,0.0,2.5
2023-10-01 23:10:00,21.9,61.1,2,0.0,2
2023-10-01 23:20:00,21.9,59.6,2,0.0,4
2023-10-01 23:30:00,22,60.5,2,0.0,1
2023-10-01 23:40:00,22,59.9,2,0.0,1
2023-10-01 23:50:00,22,59.6,2,0.0,2.5
2023-10-02 00:00:00,22,60.8,2,0.0,2
2023-10-02 00:10:00,22,61,2,0.0,1
2023-10-02 00:20:00,21.5,67.2,2,0.0,1
2023-10-02 00:30:00,20.5,72.1,2,0.0,1
2023-10-02 00:40:00,20,74,2,0.0,0
2023-10-02 00:50:00,19.7,75,2,0.0,1
2023-10-02 01:00:00,19.6,75.2,0,0.0,1
2023-10-02 01:10:00,19.3,76,2,0.0,1
2023-10-02 01:20:00,19.4,75.9,2,0.0,1
2023-10-02 01:30:00,19.3,76.5,2,0.0,0.5
2023-10-02 01:40:00,19.1,76.3,2,0.0,1
2023-10-02 01:50:00,18.8,77,2,0.0,1
2023-10-02 02:00:00,19,76.8,2,0.0,1.5
2023-10-02 02:10:00,19,76.8,2,0.0,1
2023-10-02 02:20:00,18.7,76.6,2,0.0,1
2023-10-02 02:30:00,19.1,76.5,2,0.0,1
2023-10-02 02:40:00,19,77.1,2,0.0,1
2023-10-02 02:50:00,18.7,77.1,2,0.0,1
2023-10-02 03:00:00,18.7,77.3,2,0.0,1
2023-10-02 03:10:00,18.5,77.2,2,0.0,1
2023-10-02 03:20:00,18.4,77.5,2,0.0,1
2023-10-02 03:30:00,18.5,77.6,2,0.0,1
2023-10-02 03:40:00,18.5,77.5,2,0.0,1
2023-10-02 03:50:00,18.5,77.8,2,0.0,1
2023-10-02 04:00:00,18.4,78.2,2,0.0,1
2023-10-02 04:10:00,18.4,79,2,0.0,1
2023-10-02 04:20:00,18.5,79.4,2,0.0,0.5
2023-10-02 04:30:00,18.1,80.1,0,0.0,1
2023-10-02 04:40:00,18.1,80.6,2,0.0,1
2023-10-02 04:50:00,18.1,80.6,2,0.0,1
2023-10-02 05:00:00,18,81.2,2,0.0,1
2023-10-02 05:10:00,17.5,82.7,2,0.0,1
2023-10-02 05:20:00,17.5,83.6,2,0.0,1.5
2023-10-02 05:30:00,17.4,83.7,2,0.0,1
2023-10-02 05:40:00,17.6,83.9,2,0.0,0
2023-10-02 05:50:00,17.5,83.9,22,0.0,1
2023-10-02 06:00:00,17.7,83.9,499.84,0.0,1
2023-10-02 06:10:00,17.7,83.8,1999.36,0.0,0
2023-10-02 06:20:00,17.9,84.1,3998.72,0.0,0
2023-10-02 06:30:00,17.7,84,17991.7,0.0,2
2023-10-02 06:40:00,18,83.3,34979.8,0.0,1
2023-10-02 06:50:00,18.1,82.4,28487.7,0.0,1
2023-10-02 07:00:00,18.5,81.5,19998.7,0.0,1
2023-10-02 07:10:00,18.8,81.3,33996.8,0.0,2
2023-10-02 07:20:00,19.1,79.8,9999.36,0.0,1
2023-10-02 07:30:00,19.5,78.3,64962.6,0.0,0
2023-10-02 07:40:00,20.2,75.5,38993.9,0.0,1
2023-10-02 07:50:00,20.6,73.3,66969.6,0.0,0
2023-10-02 08:00:00,21.7,66.2,67993.6,0.0,3
2023-10-02 08:10:00,22.4,64.6,16998.4,0.0,2
2023-10-02 08:20:00,22.4,63.7,65986.6,0.0,2
2023-10-02 08:30:00,22.5,63,14991.4,0.0,2
2023-10-02 08:40:00,22.2,63.8,43499.5,0.0,1.5
2023-10-02 08:50:00,22.6,59.9,39997.4,0.0,3
2023-10-02 09:00:00,22.5,60,45998.1,0.0,1
2023-10-02 09:10:00,22.8,58.6,26992.6,0.0,1.5
2023-10-02 09:20:00,22.8,60,51486.7,0.0,2.5
2023-10-02 09:30:00,23,58.6,46489.6,0.0,2
2023-10-02 09:40:00,23.1,58.3,42967,0.0,2
2023-10-02 09:50:00,23.7,55.3,33484.8,0.0,2
2023-10-02 10:00:00,23.2,53.6,34979.8,0.0,4
2023-10-02 10:10:00,23.2,56.6,10997.8,0.0,1
2023-10-02 10:20:00,23.4,54,35491.8,0.0,5
2023-10-02 10:30:00,23.7,53.8,29982.7,0.0,4
2023-10-02 10:40:00,23.9,50.5,32481.3,0.0,3
2023-10-02 10:50:00,24.3,49.1,19497,0.0,2
2023-10-02 11:00:00,23.9,51.5,23490.6,0.0,3
2023-10-02 11:10:00,24.3,49.7,32993.3,0.0,2
2023-10-02 11:20:00,25.1,48.1,31989.8,0.0,4
2023-10-02 11:30:00,24.9,46.7,32993.3,0.0,1
2023-10-02 11:40:00,25.2,45.7,19497,0.0,2
2023-10-02 11:50:00,24.6,46.4,12994.6,0.0,2.5
2023-10-02 12:00:00,24.4,49.1,14499.8,0.0,2
2023-10-02 12:10:00,24.1,49.3,26992.6,0.0,4
2023-10-02 12:20:00,24.5,49.1,23490.6,0.0,2
2023-10-02 12:30:00,24.5,47.2,21483.5,0.0,5
2023-10-02 12:40:00,24.6,48.4,26992.6,0.0,3
2023-10-02 12:50:00,24.9,46.3,18995.2,0.0,2.5
2023-10-02 13:00:00,24.7,47.9,16998.4,0.0,2
2023-10-02 13:10:00,24.8,44.2,27484.2,0.0,2
2023-10-02 13:20:00,25,42.3,27484.2,0.0,3.5
2023-10-02 13:30:00,25.1,40.1,26992.6,0.0,4
2023-10-02 13:40:00,25.2,39.1,26992.6,0.0,3.5
2023-10-02 13:50:00,25.4,41.1,26992.6,0.0,2
2023-10-02 14:00:00,25.4,40.7,25989.1,0.0,4.5
2023-10-02 14:10:00,25.6,40.6,25989.1,0.0,1.5
2023-10-02 14:20:00,25.5,37.2,26992.6,0.0,4.5
2023-10-02 14:30:00,25.5,38,26992.6,0.0,3
2023-10-02 14:40:00,25.8,38.8,26992.6,0.0,3
2023-10-02 14:50:00,25.7,42.1,26992.6,0.0,1.5
2023-10-02 15:00:00,25.8,40.1,26992.6,0.0,4
2023-10-02 15:10:00,25.7,41.4,25989.1,0.0,3
2023-10-02 15:20:00,25.9,41.8,25989.1,0.0,2
2023-10-02 15:30:00,25.5,41.2,25989.1,0.0,2
2023-10-02 15:40:00,25.5,42.2,25989.1,0.0,3
2023-10-02 15:50:00,25.2,42.6,24985.6,0.0,2
2023-10-02 16:00:00,25.4,42.1,23982.1,0.0,1
2023-10-02 16:10:00,25,42.8,22999,0.0,2
2023-10-02 16:20:00,25.3,44.2,21995.5,0.0,1
2023-10-02 16:30:00,24.9,45.4,19998.7,0.0,2
2023-10-02 16:40:00,25.2,44.1,18995.2,0.0,1
2023-10-02 16:50:00,25.8,43.2,16998.4,0.0,1
2023-10-02 17:00:00,25.4,43.4,5995.52,0.0,2
2023-10-02 17:10:00,24.8,46.4,2997.76,0.0,2
2023-10-02 17:20:00,24.6,47.3,3998.72,0.0,1.5
2023-10-02 17:30:00,24.4,47.9,6999.04,0.0,2
2023-10-02 17:40:00,24.2,47.9,1999.36,0.0,1
2023-10-02 17:50:00,24,48.8,999.68,0.0,1
2023-10-02 18:00:00,23.9,49.5,465.92,0.0,1
2023-10-02 18:10:00,23.8,49.9,82,0.0,0
2023-10-02 18:20:00,23.7,50.4,8,0.0,1
2023-10-02 18:30:00,23.5,50.5,2,0.0,1
2023-10-02 18:40:00,23.4,50.8,0,0.0,0
2023-10-02 18:50:00,23.4,51.3,2,0.0,0.5
2023-10-02 19:00:00,23,55.6,2,0.0,2
2023-10-02 19:10:00,22.4,58.9,2,0.0,1
2023-10-02 19:20:00,22.4,62.3,2,0.0,2
2023-10-02 19:30:00,22,64.8,2,0.0,1
2023-10-02 19:40:00,21.9,65.3,2,0.0,1.5
2023-10-02 19:50:00,21.3,65.5,2,0.0,2
2023-10-02 20:00:00,21.6,65.6,2,0.0,2
2023-10-02 20:10:00,21,66.4,0,0.0,1
2023-10-02 20:20:00,20.9,67.1,2,0.0,0
2023-10-02 20:30:00,20.8,67.4,2,0.0,1
2023-10-02 20:40:00,20.6,67.5,2,0.0,1.5
2023-10-02 20:50:00,20.4,68,2,0.0,2.5
2023-10-02 21:00:00,20.2,68.5,0,0.0,1.5
2023-10-02 21:10:00,19.9,69,2,0.0,2
2023-10-02 21:20:00,20,69.4,2,0.0,1
2023-10-02 21:30:00,19.9,69.2,2,0.0,1.5
2023-10-02 21:40:00,19.8,69.2,2,0.0,2.5
2023-10-02 21:50:00,19.4,71.3,2,0.0,2
2023-10-02 22:00:00,19.4,71.1,2,0.0,2.5
2023-10-02 22:10:00,19.3,71.5,2,0.0,3
2023-10-02 22:20:00,19.3,71.5,0,0.0,2
2023-10-02 22:30:00,19.1,72,2,0.0,2
2023-10-02 22:40:00,19.1,72.4,0,0.0,3
2023-10-02 22:50:00,18.7,73.3,2,0.0,2
2023-10-02 23:00:00,18.7,74.3,2,0.0,1
2023-10-02 23:10:00,18.6,74.7,2,0.0,3
2023-10-02 23:20:00,18.5,75.1,2,0.0,2.5
2023-10-02 23:30:00,18.5,75,2,0.0,2
2023-10-02 23:40:00,18.6,75.5,2,0.0,2
2023-10-02 23:50:00,18.3,75.6,2,0.0,0.5
2023-10-03 00:00:00,18.3,75.8,0,0.0,2
2023-10-03 00:10:00,18.4,75.5,2,0.0,1
2023-10-03 00:20:00,18.5,75.3,2,0.0,1.5
2023-10-03 00:30:00,18.3,76.7,2,0.0,1.5
2023-10-03 00:40:00,18.2,76.8,2,0.0,1
2023-10-03 00:50:00,18.2,76,2,0.0,2
2023-10-03 01:00:00,18.3,76.3,2,0.0,1
2023-10-03 01:10:00,18.3,76.6,2,0.0,2
2023-10-03 01:20:00,18.2,76.4,0,0.0,2
2023-10-03 01:30:00,18.3,76.5,2,0.0,2
2023-10-03 01:40:00,18.2,76.4,2,0.0,1
2023-10-03 01:50:00,18.1,77,2,0.0,2
2023-10-03 02:00:00,18.2,78.2,2,0.0,1
2023-10-03 02:10:00,17.8,78.4,2,0.0,2
2023-10-03 02:20:00,18,78.5,2,0.0,2
2023-10-03 02:30:00,18.1,78.4,2,0.0,1
2023-10-03 02:40:00,18,78.5,2,0.0,1
2023-10-03 02:50:00,18.1,78.7,2,0.0,1.5
2023-10-03 03:00:00,18.1,78.6,2,0.0,1
2023-10-03 03:10:00,18.1,79.2,2,0.0,1
2023-10-03 03:20:00,18.2,79.3,2,0.0,2
2023-10-03 03:30:00,17.7,80,2,0.0,1
2023-10-03 03:40:00,17.7,80.4,2,0.0,1
2023-10-03 03:50:00,18,80.8,2,0.0,1
2023-10-03 04:00:00,17.9,80.7,2,0.0,1
2023-10-03 04:10:00,17.9,80.4,2,0.0,1
2023-10-03 04:20:00,18,80.2,2,0.0,2
2023-10-03 04:30:00,17.9,80.4,2,0.0,1
2023-10-03 04:40:00,18,80.2,2,0.0,1
2023-10-03 04:50:00,18,80,2,0.0,1
2023-10-03 05:00:00,18.2,80.5,2,0.0,1
2023-10-03 05:10:00,18.1,80.4,2,0.0,1
2023-10-03 05:20:00,17.9,80.6,2,0.0,1
2023-10-03 05:30:00,18.2,81.5,2,0.0,1
2023-10-03 05:40:00,18,81.7,2,0.0,2
2023-10-03 05:50:00,18.2,81.3,16,0.0,1
2023-10-03 06:00:00,17.9,81.1,102,0.0,1
2023-10-03 06:10:00,18.2,81,999.68,0.0,1
2023-10-03 06:20:00,18.1,80.6,999.68,0.0,1
2023-10-03 06:30:00,18.1,81.1,999.68,0.0,1
2023-10-03 06:40:00,18.2,81.6,3499.52,0.0,1
2023-10-03 06:50:00,18.5,81.6,23982.1,0.0,1
2023-10-03 07:00:00,18.7,80.8,5995.52,0.0,1
2023-10-03 07:10:00,18.8,80.8,7997.44,0.0,1
2023-10-03 07:20:00,18.7,80.2,10997.8,0.0,2
2023-10-03 07:30:00,19.1,79.7,12994.6,0.0,1.5
2023-10-03 07:40:00,19.2,78.5,10997.8,0.0,1
2023-10-03 07:50:00,19.2,77.9,11499.5,0.0,3
2023-10-03 08:00:00,19.6,77.5,14991.4,0.0,2
2023-10-03 08:10:00,19.9,75.8,14991.4,0.0,1.5
2023-10-03 08:20:00,20.1,75.2,15994.9,0.0,1
2023-10-03 08:30:00,20.3,74.7,27996.2,0.0,2
2023-10-03 08:40:00,20.9,72.3,47472.6,0.0,3
2023-10-03 08:50:00,21.6,70.8,22487,0.0,1
2023-10-03 09:00:00,22,69.6,31989.8,0.0,3
2023-10-03 09:10:00,22.5,68.2,31989.8,0.0,2
2023-10-03 09:20:00,22.7,66.8,31498.2,0.0,2
2023-10-03 09:30:00,23.5,65.5,40980.5,0.0,1
2023-10-03 09:40:00,24,63.9,31989.8,0.0,2
2023-10-03 09:50:00,24.3,62.4,29491.2,0.0,1
2023-10-03 10:00:00,24.1,62.5,21995.5,0.0,2
2023-10-03 10:10:00,24.3,59.7,27996.2,0.0,1
2023-10-03 10:20:00,24.2,58.3,24985.6,0.0,1.5
2023-10-03 10:30:00,24.4,58.7,24985.6,0.0,1
2023-10-03 10:40:00,24.4,58.7,27996.2,0.0,0
2023-10-03 10:50:00,24.6,57.7,32993.3,0.0,1
2023-10-03 11:00:00,24.8,55.2,37990.4,0.0,1
2023-10-03 11:10:00,25.3,53,44482.6,0.0,3
2023-10-03 11:20:00,25.8,52.4,40980.5,0.0,1
2023-10-03 11:30:00,25.4,52.5,35983.4,0.0,2
2023-10-03 11:40:00,25.7,52.4,36986.9,0.0,1
2023-10-03 11:50:00,25,53.7,31989.8,0.0,3
2023-10-03 12:00:00,25.1,53.2,28999.7,0.0,2
2023-10-03 12:10:00,24.8,53.9,26992.6,0.0,2
2023-10-03 12:20:00,24.8,54,21995.5,0.0,2
2023-10-03 12:30:00,24.5,54.1,19998.7,0.0,1.5
2023-10-03 12:40:00,24.5,54.4,19998.7,0.0,1
2023-10-03 12:50:00,24.5,54.5,18995.2,0.0,1.5
2023-10-03 13:00:00,24.7,55.1,18995.2,0.0,1.5
2023-10-03 13:10:00,24.6,55,20992,0.0,2
2023-10-03 13:20:00,24.3,55.1,20992,0.0,2
2023-10-03 13:30:00,24.4,55.8,15994.9,0.0,1
2023-10-03 13:40:00,24.4,56.1,14991.4,0.0,1
2023-10-03 13:50:00,24.5,57.1,13998.1,0.0,1
2023-10-03 14:00:00,24.3,57.2,14991.4,0.0,1
2023-10-03 14:10:00,24.6,56.5,17991.7,0.0,2.5
2023-10-03 14:20:00,24.5,56.8,19998.7,0.0,2
2023-10-03 14:30:00,24.9,56.7,21995.5,0.0,1
2023-10-03 14:40:00,24.9,55.5,20992,0.0,1
2023-10-03 14:50:00,25.1,56.5,23982.1,0.0,1
2023-10-03 15:00:00,24.6,58.6,24985.6,0.0,2.5
2023-10-03 15:10:00,24.2,60.4,22999,0.0,2
2023-10-03 15:20:00,24.2,61.3,17991.7,0.0,3
2023-10-03 15:30:00,24.2,62.3,21995.5,0.0,2
2023-10-03 15:40:00,23.9,62.8,16998.4,0.0,3
2023-10-03 15:50:00,24.2,62.8,16998.4,0.0,2.5
2023-10-03 16:00:00,24.1,63.2,11991,0.0,2
2023-10-03 16:10:00,24,63.1,11991,0.0,1
2023-10-03 16:20:00,24.2,63.2,3998.72,0.0,1
2023-10-03 16:30:00,24.4,62.9,2997.76,0.0,1
2023-10-03 16:40:00,24.5,62.8,2997.76,0.0,2
2023-10-03 16:50:00,24.3,64,1999.36,0.0,1
2023-10-03 17:00:00,24.1,65.6,1999.36,0.0,1
2023-10-03 17:10:00,24.3,65,999.68,0.0,1
2023-10-03 17:20:00,24.3,64.7,999.68,0.0,1
2023-10-03 17:30:00,24.4,65.3,999.68,0.0,1
2023-10-03 17:40:00,24,65.9,499.84,0.0,0
2023-10-03 17:50:00,24.3,65.9,300,0.0,1
2023-10-03 18:00:00,24,66.1,126,0.0,0
2023-10-03 18:10:00,24,66.9,32,0.0,1
2023-10-03 18:20:00,23.7,67.5,4,0.0,1
2023-10-03 18:30:00,23.7,67.7,2,0.0,1
2023-10-03 18:40:00,23.6,67.7,2,0.0,1
2023-10-03 18:50:00,23.1,68.2,2,0.0,1
2023-10-03 19:00:00,23.1,68.4,2,0.0,1
2023-10-03 19:10:00,23.1,69.3,2,0.0,1
2023-10-03 19:20:00,22.9,70.6,2,0.0,1
2023-10-03 19:30:00,22.7,72.2,2,0.0,2
2023-10-03 19:40:00,22.6,73.2,2,0.0,1
2023-10-03 19:50:00,22.6,73.4,2,0.0,1
2023-10-03 20:00:00,22.7,74.7,2,0.0,1
2023-10-03 20:10:00,22.6,75.1,2,0.0,0.5
2023-10-03 20:20:00,22.4,75.6,2,0.0,1
2023-10-03 20:30:00,22.4,76.7,2,0.0,1
2023-10-03 20:40:00,22.1,77.3,2,0.0,1
2023-10-03 20:50:00,22,78,2,0.0,1
2023-10-03 21:00:00,22.2,78.3,2,0.0,1
2023-10-03 21:10:00,21.9,78.8,2,0.0,1
2023-10-03 21:20:00,22,79.2,2,0.0,1
2023-10-03 21:30:00,22,79,2,0.0,1
2023-10-03 21:40:00,21.8,79,2,0.0,1
2023-10-03 21:50:00,21.8,79.1,2,0.0,1.5
2023-10-03 22:00:00,21.7,79,2,0.0,1
2023-10-03 22:10:00,21.7,79.8,2,0.0,1
2023-10-03 22:20:00,21.7,81.1,2,0.0,1
2023-10-03 22:30:00,21.6,80.9,2,0.0,1
2023-10-03 22:40:00,21.7,80.8,2,0.0,1
2023-10-03 22:50:00,21.4,82.5,2,0.0,1
2023-10-03 23:00:00,21.4,83.7,2,0.0,2
2023-10-03 23:10:00,21,84.8,2,1.0,1
2023-10-03 23:20:00,21.2,84.5,2,0.0,1
2023-10-03 23:30:00,21.3,84.7,2,0.0,1
2023-10-03 23:40:00,21,86,2,0.0,1
2023-10-03 23:50:00,21,86.4,2,0.0,1
2023-10-04 00:00:00,20.8,86.7,2,0.0,2
2023-10-04 00:10:00,20.7,87.5,2,0.0,1
2023-10-04 00:20:00,20.8,86.6,2,0.0,1
2023-10-04 00:30:00,20.9,86.9,2,1.0,1
2023-10-04 00:40:00,20.5,87.9,2,1.0,2
2023-10-04 00:50:00,20.7,87.9,2,0.0,1
2023-10-04 01:00:00,20.8,87.5,2,0.0,1
2023-10-04 01:10:00,20.8,86.8,2,0.0,1
2023-10-04 01:20:00,20.5,86.5,2,0.0,1
2023-10-04 01:30:00,20.8,87,2,1.0,2
2023-10-04 01:40:00,20.5,87.5,2,0.0,1
2023-10-04 01:50:00,20.5,88,2,0.0,2
2023-10-04 02:00:00,20.3,89.1,2,0.0,2
2023-10-04 02:10:00,20.3,89.3,2,0.0,1
2023-10-04 02:20:00,20.3,89.3,2,0.0,2
2023-10-04 02:30:00,20.5,89,2,0.0,2
2023-10-04 02:40:00,20.4,88.8,2,0.0,2
2023-10-04 02:50:00,20.6,89.2,2,0.0,1
2023-10-04 03:00:00,20.5,89.5,2,0.0,1
2023-10-04 03:10:00,20.4,89.5,2,0.0,1
2023-10-04 03:20:00,20.2,88.9,2,0.0,2
2023-10-04 03:30:00,20.3,89,2,1.0,1
2023-10-04 03:40:00,20.3,89.1,2,0.0,2
2023-10-04 03:50:00,20.1,88.8,0,1.0,2
2023-10-04 04:00:00,20.4,89.3,2,1.0,1
2023-10-04 04:10:00,20.3,89.6,2,0.0,1
2023-10-04 04:20:00,20.3,89.4,2,1.0,0
2023-10-04 04:30:00,20.4,89.4,2,1.0,1
2023-10-04 04:40:00,20.4,89.6,2,1.0,0
2023-10-04 04:50:00,20.3,89.6,2,0.0,0
2023-10-04 05:00:00,20.4,89.9,2,0.0,1
2023-10-04 05:10:00,20.2,89.6,2,0.0,1
2023-10-04 05:20:00,20.3,89,2,0.0,1
2023-10-04 05:30:00,20.4,89.1,2,0.0,1
2023-10-04 05:40:00,20.4,89,2,0.0,1
2023-10-04 05:50:00,20.5,89,4,1.0,1
2023-10-04 06:00:00,20.5,88.4,56,1.0,1
2023-10-04 06:10:00,20.5,88.3,209.92,0.0,1
2023-10-04 06:20:00,20.3,88.5,499.84,0.0,1
2023-10-04 06:30:00,20.5,88.8,999.68,0.0,1
2023-10-04 06:40:00,20.7,88.2,1999.36,0.0,1
2023-10-04 06:50:00,20.6,87.9,4999.68,0.0,0
2023-10-04 07:00:00,20.7,87.5,5995.52,0.0,1
2023-10-04 07:10:00,21,86.9,4999.68,0.0,2
2023-10-04 07:20:00,20.9,86.8,12994.6,0.0,2
2023-10-04 07:30:00,21.1,86.6,8995.84,0.0,2
2023-10-04 07:40:00,21.2,85.2,7997.44,0.0,1
2023-10-04 07:50:00,21.2,84.2,6999.04,0.0,1
2023-10-04 08:00:00,21.7,83.4,8995.84,0.0,2
2023-10-04 08:10:00,21.5,84.4,7997.44,0.0,1
2023-10-04 08:20:00,21.7,83.8,7495.68,0.0,1
2023-10-04 08:30:00,21.8,82.5,8995.84,0.0,1
2023-10-04 08:40:00,22.2,81.1,10997.8,0.0,1
2023-10-04 08:50:00,22.2,80,11991,0.0,2
2023-10-04 09:00:00,22.2,80.7,14991.4,0.0,1
2023-10-04 09:10:00,22.7,80,15994.9,0.0,1
2023-10-04 09:20:00,23,78.9,16998.4,0.0,1
2023-10-04 09:30:00,23.1,77.7,17991.7,0.0,1
2023-10-04 09:40:00,23.5,76.9,19998.7,0.0,1
2023-10-04 09:50:00,23.8,75.5,19998.7,0.0,1
2023-10-04 10:00:00,24,74.6,19998.7,0.0,1
2023-10-04 10:10:00,24,74.7,23982.1,0.0,1
2023-10-04 10:20:00,24,73.7,28999.7,0.0,2
2023-10-04 10:30:00,24.5,73.2,26992.6,0.0,1
2023-10-04 10:40:00,24.5,75.5,20992,0.0,1
2023-10-04 10:50:00,24.5,74.9,25989.1,0.0,1.5
2023-10-04 11:00:00,24.6,74.4,39997.4,0.0,2
2023-10-04 11:10:00,24.7,74.5,40980.5,0.0,1
2023-10-04 11:20:00,25,72.9,20992,0.0,1
2023-10-04 11:30:00,25.7,70.2,25989.1,0.0,2
2023-10-04 11:40:00,24.9,74.7,26992.6,0.0,2
2023-10-04 11:50:00,25.1,75.3,27996.2,0.0,1
2023-10-04 12:00:00,25.8,69.9,28999.7,0.0,1
2023-10-04 12:10:00,26.9,66,39485.4,0.0,1
2023-10-04 12:20:00,26.8,65.5,27996.2,0.0,3.5
2023-10-04 12:30:00,26.8,65.8,33484.8,0.0,2
2023-10-04 12:40:00,26.6,66.6,30986.2,0.0,2
2023-10-04 12:50:00,26.2,67.6,29491.2,0.0,3
2023-10-04 13:00:00,26.5,64.9,34979.8,0.0,2
2023-10-04 13:10:00,26.9,65.6,31989.8,0.0,3
2023-10-04 13:20:00,27.1,65.5,33484.8,0.0,2.5
2023-10-04 13:30:00,26.8,66.1,26992.6,0.0,3
2023-10-04 13:40:00,26.8,65.3,17991.7,0.0,2
2023-10-04 13:50:00,26.3,66.6,14991.4,0.0,1
2023-10-04 14:00:00,25.9,68.8,24494.1,0.0,3
2023-10-04 14:10:00,25.7,68.8,22999,0.0,2
2023-10-04 14:20:00,25.7,67.5,16998.4,0.0,1.5
2023-10-04 14:30:00,26.2,65.3,31989.8,0.0,3
2023-10-04 14:40:00,26.6,63.7,27996.2,0.0,3
2023-10-04 14:50:00,26.7,62.5,27996.2,0.0,2
2023-10-04 15:00:00,26.4,62.8,27996.2,0.0,2.5
2023-10-04 15:10:00,25.9,63.9,27996.2,0.0,4
2023-10-04 15:20:00,26.5,62.4,25989.1,0.0,1.5
2023-10-04 15:30:00,26.6,60.6,25497.6,0.0,2
2023-10-04 15:40:00,26,61.2,12994.6,0.0,2
2023-10-04 15:50:00,26,60.7,16496.6,0.0,2
2023-10-04 16:00:00,26.1,59.5,15994.9,0.0,1.5
2023-10-04 16:10:00,25.9,59.8,21995.5,0.0,1
2023-10-04 16:20:00,26,59,12994.6,0.0,2
2023-10-04 16:30:00,26.1,58.4,7997.44,0.0,2
2023-10-04 16:40:00,25.6,59.3,4999.68,0.0,1
2023-10-04 16:50:00,25.5,60,5995.52,0.0,1
2023-10-04 17:00:00,25.7,59.2,4999.68,0.0,2
2023-10-04 17:10:00,25.5,59.7,3998.72,0.0,1
2023-10-04 17:20:00,25.2,60.3,2997.76,0.0,1
2023-10-04 17:30:00,25.4,58.7,2997.76,0.0,1
2023-10-04 17:40:00,25.1,62.7,999.68,0.0,1
2023-10-04 17:50:00,24.7,64.2,499.84,0.0,1
2023-10-04 18:00:00,24.5,65.8,146,0.0,2.5
2023-10-04 18:10:00,24.1,66.6,42,0.0,1
2023-10-04 18:20:00,24.4,67.1,6,0.0,1
2023-10-04 18:30:00,24.1,68,2,0.0,1
2023-10-04 18:40:00,24.5,69.3,2,0.0,1
2023-10-04 18:50:00,24.5,69.9,2,0.0,1
2023-10-04 19:00:00,24.4,71.3,2,0.0,1
2023-10-04 19:10:00,24.2,71.5,2,0.0,2
2023-10-04 19:20:00,24.4,71.8,2,0.0,1.5
2023-10-04 19:30:00,24.2,69,2,0.0,2
2023-10-04 19:40:00,24.4,65.8,2,0.0,2
2023-10-04 19:50:00,24.3,64.5,2,0.0,1
2023-10-04 20:00:00,24.4,63.8,0,0.0,3.5
2023-10-04 20:10:00,24.2,64.8,2,0.0,3
2023-10-04 20:20:00,24.5,66.2,2,0.0,1.5
2023-10-04 20:30:00,24.1,67.4,2,0.0,3.5
2023-10-04 20:40:00,23.9,68.7,2,0.0,2
2023-10-04 20:50:00,23.7,69.8,2,0.0,2.5
2023-10-04 21:00:00,23.7,71.1,2,0.0,2
2023-10-04 21:10:00,23.6,71.4,2,0.0,2
2023-10-04 21:20:00,23.4,72.4,2,0.0,3.5
2023-10-04 21:30:00,23.3,72.9,2,0.0,4
2023-10-04 21:40:00,23.5,74.2,2,0.0,2
2023-10-04 21:50:00,23.2,74.4,2,0.0,3
2023-10-04 22:00:00,23.1,74.9,2,0.0,1
2023-10-04 22:10:00,23.1,75.1,2,0.0,2.5
2023-10-04 22:20:00,23.1,75.3,2,0.0,3
2023-10-04 22:30:00,23.1,75.9,2,0.0,4.5
2023-10-04 22:40:00,23,76,2,0.0,6
2023-10-04 22:50:00,22.7,76.4,2,0.0,1
2023-10-04 23:00:00,23.1,76.2,2,0.0,4
2023-10-04 23:10:00,22.8,76.2,2,0.0,2